Time,TemperatureF,DewpointF,PressureIn,WindDirection,WindDirectionDegrees,WindSpeedMPH,WindSpeedGustMPH,Humidity,HourlyPrecipIn,Conditions,Clouds,dailyrainin,SoftwareType,DateUTC
2013-11-11 00:01:00,47.5,27.1,30.03,North,359,0.0,0.0,45,0.00,,---,0.00,VWS V14.01,2013-11-11 05:01:00,
2013-11-11 00:07:00,47.0,26.9,30.03,North,359,0.0,0.0,45,0.00,,---,0.00,VWS V14.01,2013-11-11 05:07:00,
2013-11-11 00:12:00,47.5,27.5,30.03,North,359,0.0,0.0,46,0.00,,---,0.00,VWS V14.01,2013-11-11 05:12:00,
2013-11-11 00:17:00,46.8,26.9,30.03,North,359,0.0,0.0,46,0.00,,---,0.00,VWS V14.01,2013-11-11 05:17:00,
2013-11-11 00:22:00,46.5,26.7,30.03,North,359,0.0,0.0,46,0.00,,---,0.00,VWS V14.01,2013-11-11 05:22:00,
2013-11-11 00:27:00,47.0,27.5,30.03,North,359,0.0,0.0,46,0.00,,---,0.00,VWS V14.01,2013-11-11 05:27:00,
2013-11-11 00:32:00,47.1,27.7,30.03,North,359,0.0,0.0,46,0.00,,---,0.00,VWS V14.01,2013-11-11 05:32:00,
2013-11-11 00:37:00,46.7,27.4,30.04,North,359,0.0,0.0,47,0.00,,---,0.00,VWS V14.01,2013-11-11 05:37:00,
2013-11-11 00:42:00,47.1,28.0,30.04,North,359,0.0,0.0,47,0.00,,---,0.00,VWS V14.01,2013-11-11 05:42:00,
2013-11-11 00:47:00,46.6,27.6,30.04,North,359,0.0,0.0,47,0.00,,---,0.00,VWS V14.01,2013-11-11 05:47:00,
2013-11-11 00:52:00,46.4,27.7,30.04,North,359,0.0,0.0,48,0.00,,---,0.00,VWS V14.01,2013-11-11 05:52:00,
2013-11-11 00:57:00,47.0,28.3,30.04,North,359,0.0,0.0,48,0.00,,---,0.00,VWS V14.01,2013-11-11 05:57:00,
2013-11-11 01:02:00,46.2,27.8,30.04,North,359,0.0,0.0,48,0.00,,---,0.00,VWS V14.01,2013-11-11 06:02:00,
2013-11-11 01:06:00,46.0,27.6,30.05,North,359,0.0,0.0,48,0.00,,---,0.00,VWS V14.01,2013-11-11 06:06:00,
2013-11-11 01:11:00,45.8,27.5,30.05,North,359,0.0,0.0,48,0.00,,---,0.00,VWS V14.01,2013-11-11 06:11:00,
2013-11-11 01:16:00,46.1,28.0,30.05,North,359,0.0,0.0,49,0.00,,---,0.00,VWS V14.01,2013-11-11 06:16:00,
2013-11-11 01:21:00,44.9,27.0,30.05,North,359,0.0,0.0,49,0.00,,---,0.00,VWS V14.01,2013-11-11 06:21:00,
2013-11-11 01:26:00,45.8,28.0,30.05,North,359,0.0,0.0,50,0.00,,---,0.00,VWS V14.01,2013-11-11 06:26:00,
2013-11-11 01:31:00,45.1,27.3,30.05,North,359,0.0,0.0,50,0.00,,---,0.00,VWS V14.01,2013-11-11 06:31:00,
2013-11-11 01:36:00,45.7,28.0,30.05,North,359,0.0,0.0,50,0.00,,---,0.00,VWS V14.01,2013-11-11 06:36:00,
2013-11-11 01:41:00,45.9,28.3,30.05,North,359,0.0,0.0,50,0.00,,---,0.00,VWS V14.01,2013-11-11 06:41:00,
2013-11-11 01:46:00,44.9,27.4,30.06,North,359,0.0,0.0,50,0.00,,---,0.00,VWS V14.01,2013-11-11 06:46:00,
2013-11-11 01:51:00,45.1,27.6,30.06,North,359,0.0,0.0,50,0.00,,---,0.00,VWS V14.01,2013-11-11 06:51:00,
2013-11-11 01:56:00,45.1,27.7,30.06,North,359,0.0,0.0,50,0.00,,---,0.00,VWS V14.01,2013-11-11 06:56:00,
2013-11-11 02:01:00,44.9,27.6,30.06,North,359,0.0,0.0,50,0.00,,---,0.00,VWS V14.01,2013-11-11 07:01:00,
2013-11-11 02:06:00,44.7,27.3,30.07,North,359,0.0,0.0,50,0.00,,---,0.00,VWS V14.01,2013-11-11 07:06:00,
2013-11-11 02:11:00,44.3,26.9,30.07,North,359,0.0,0.0,50,0.00,,---,0.00,VWS V14.01,2013-11-11 07:11:00,
2013-11-11 02:16:00,44.1,26.9,30.07,North,359,0.0,0.0,50,0.00,,---,0.00,VWS V14.01,2013-11-11 07:16:00,
2013-11-11 02:21:00,44.8,27.4,30.08,North,359,0.0,0.0,50,0.00,,---,0.00,VWS V14.01,2013-11-11 07:21:00,
2013-11-11 02:26:00,43.5,26.2,30.08,North,359,0.0,0.0,50,0.00,,---,0.00,VWS V14.01,2013-11-11 07:26:00,
2013-11-11 02:31:00,44.4,27.2,30.08,North,359,0.0,0.0,50,0.00,,---,0.00,VWS V14.01,2013-11-11 07:31:00,
2013-11-11 02:36:00,44.1,27.0,30.08,North,359,0.0,0.0,51,0.00,,---,0.00,VWS V14.01,2013-11-11 07:36:00,
2013-11-11 02:41:00,43.8,26.7,30.08,North,359,0.0,0.0,51,0.00,,---,0.00,VWS V14.01,2013-11-11 07:41:00,
2013-11-11 02:46:00,43.9,26.9,30.09,North,359,0.0,0.0,51,0.00,,---,0.00,VWS V14.01,2013-11-11 07:46:00,
2013-11-11 02:51:00,44.1,27.2,30.09,North,359,0.0,0.0,51,0.00,,---,0.00,VWS V14.01,2013-11-11 07:51:00,
2013-11-11 02:56:00,43.5,26.6,30.10,North,359,0.0,0.0,51,0.00,,---,0.00,VWS V14.01,2013-11-11 07:56:00,
2013-11-11 03:01:00,43.4,26.4,30.10,North,359,0.0,0.0,51,0.00,,---,0.00,VWS V14.01,2013-11-11 08:01:00,
2013-11-11 03:06:00,43.2,26.3,30.10,North,359,0.0,0.0,51,0.00,,---,0.00,VWS V14.01,2013-11-11 08:06:00,
2013-11-11 03:11:00,43.3,26.4,30.10,North,359,0.0,0.0,51,0.00,,---,0.00,VWS V14.01,2013-11-11 08:11:00,
2013-11-11 03:16:00,43.3,25.6,30.10,North,359,0.0,0.0,49,0.00,,---,0.00,VWS V14.01,2013-11-11 08:16:00,
2013-11-11 03:21:00,43.0,24.9,30.10,North,359,0.0,0.0,48,0.00,,---,0.00,VWS V14.01,2013-11-11 08:21:00,
2013-11-11 03:26:00,42.7,24.4,30.10,North,359,0.0,0.0,48,0.00,,---,0.00,VWS V14.01,2013-11-11 08:26:00,
2013-11-11 03:31:00,43.1,24.8,30.10,North,359,0.0,0.0,48,0.00,,---,0.00,VWS V14.01,2013-11-11 08:31:00,
2013-11-11 03:36:00,42.3,24.1,30.10,North,359,0.0,0.0,48,0.00,,---,0.00,VWS V14.01,2013-11-11 08:36:00,
2013-11-11 03:41:00,42.8,24.7,30.10,North,359,0.0,0.0,48,0.00,,---,0.00,VWS V14.01,2013-11-11 08:41:00,
2013-11-11 03:46:00,42.5,24.5,30.11,North,359,0.0,0.0,49,0.00,,---,0.00,VWS V14.01,2013-11-11 08:46:00,
2013-11-11 03:51:00,42.6,24.8,30.11,North,359,0.0,0.0,49,0.00,,---,0.00,VWS V14.01,2013-11-11 08:51:00,
2013-11-11 03:56:00,43.1,25.5,30.11,North,359,0.0,0.0,49,0.00,,---,0.00,VWS V14.01,2013-11-11 08:56:00,
2013-11-11 04:01:00,42.2,24.7,30.11,North,359,0.0,0.0,50,0.00,,---,0.00,VWS V14.01,2013-11-11 09:01:00,
2013-11-11 04:06:00,42.1,24.5,30.11,North,359,0.0,0.0,49,0.00,,---,0.00,VWS V14.01,2013-11-11 09:06:00,
2013-11-11 04:11:00,42.5,25.0,30.11,North,359,0.0,0.0,50,0.00,,---,0.00,VWS V14.01,2013-11-11 09:11:00,
2013-11-11 04:16:00,42.4,24.9,30.11,North,359,0.0,0.0,50,0.00,,---,0.00,VWS V14.01,2013-11-11 09:16:00,
2013-11-11 04:21:00,42.0,24.9,30.12,North,359,0.0,0.0,50,0.00,,---,0.00,VWS V14.01,2013-11-11 09:21:00,
2013-11-11 04:26:00,42.3,25.4,30.12,North,359,0.0,0.0,51,0.00,,---,0.00,VWS V14.01,2013-11-11 09:26:00,
2013-11-11 04:31:00,41.1,24.6,30.12,North,359,0.0,0.0,52,0.00,,---,0.00,VWS V14.01,2013-11-11 09:31:00,
2013-11-11 04:36:00,41.7,25.4,30.12,North,359,0.0,0.0,52,0.00,,---,0.00,VWS V14.01,2013-11-11 09:36:00,
2013-11-11 04:41:00,41.7,25.7,30.12,North,359,0.0,0.0,53,0.00,,---,0.00,VWS V14.01,2013-11-11 09:41:00,
2013-11-11 04:46:00,40.9,25.2,30.12,North,359,0.0,0.0,53,0.00,,---,0.00,VWS V14.01,2013-11-11 09:46:00,
2013-11-11 04:51:00,40.3,25.0,30.12,North,359,0.0,0.0,54,0.00,,---,0.00,VWS V14.01,2013-11-11 09:51:00,
2013-11-11 04:56:00,40.9,25.8,30.12,North,359,0.0,0.0,55,0.00,,---,0.00,VWS V14.01,2013-11-11 09:56:00,
2013-11-11 05:01:00,40.4,25.4,30.12,North,359,0.0,0.0,55,0.00,,---,0.00,VWS V14.01,2013-11-11 10:01:00,
2013-11-11 05:06:00,40.3,25.5,30.12,North,359,0.0,0.0,55,0.00,,---,0.00,VWS V14.01,2013-11-11 10:06:00,
2013-11-11 05:11:00,39.8,25.1,30.12,North,359,0.0,0.0,55,0.00,,---,0.00,VWS V14.01,2013-11-11 10:11:00,
2013-11-11 05:16:00,39.6,25.0,30.12,North,359,0.0,0.0,56,0.00,,---,0.00,VWS V14.01,2013-11-11 10:16:00,
2013-11-11 05:21:00,39.7,25.1,30.12,North,359,0.0,0.0,56,0.00,,---,0.00,VWS V14.01,2013-11-11 10:21:00,
2013-11-11 05:26:00,39.7,25.2,30.12,North,359,0.0,0.0,56,0.00,,---,0.00,VWS V14.01,2013-11-11 10:26:00,
2013-11-11 05:31:00,39.6,25.1,30.12,North,359,0.0,0.0,56,0.00,,---,0.00,VWS V14.01,2013-11-11 10:31:00,
2013-11-11 05:36:00,40.3,25.7,30.12,North,359,0.0,0.0,56,0.00,,---,0.00,VWS V14.01,2013-11-11 10:36:00,
2013-11-11 05:41:00,40.0,25.4,30.13,North,359,0.0,0.0,56,0.00,,---,0.00,VWS V14.01,2013-11-11 10:41:00,
2013-11-11 05:46:00,38.9,24.3,30.13,North,359,0.0,0.0,55,0.00,,---,0.00,VWS V14.01,2013-11-11 10:46:00,
2013-11-11 05:51:00,39.5,24.9,30.13,North,359,0.0,0.0,55,0.00,,---,0.00,VWS V14.01,2013-11-11 10:51:00,
2013-11-11 05:56:00,39.0,24.5,30.13,North,359,0.0,0.0,56,0.00,,---,0.00,VWS V14.01,2013-11-11 10:56:00,
2013-11-11 06:01:00,40.0,25.1,30.14,North,359,0.0,0.0,55,0.00,,---,0.00,VWS V14.01,2013-11-11 11:01:00,
2013-11-11 06:06:00,40.1,25.2,30.14,North,359,0.0,0.0,55,0.00,,---,0.00,VWS V14.01,2013-11-11 11:06:00,
2013-11-11 06:11:00,40.1,25.2,30.14,North,359,0.0,0.0,55,0.00,,---,0.00,VWS V14.01,2013-11-11 11:11:00,
2013-11-11 06:16:00,39.3,24.3,30.13,North,359,0.0,0.0,55,0.00,,---,0.00,VWS V14.01,2013-11-11 11:16:00,
2013-11-11 06:21:00,40.3,25.3,30.14,North,359,0.0,0.0,55,0.00,,---,0.00,VWS V14.01,2013-11-11 11:21:00,
2013-11-11 06:26:00,40.1,25.3,30.14,North,359,0.0,0.0,55,0.00,,---,0.00,VWS V14.01,2013-11-11 11:26:00,
2013-11-11 06:31:00,40.0,25.3,30.14,North,359,0.0,0.0,55,0.00,,---,0.00,VWS V14.01,2013-11-11 11:31:00,
2013-11-11 06:36:00,39.8,25.2,30.15,North,359,0.0,0.0,56,0.00,,---,0.00,VWS V14.01,2013-11-11 11:36:00,
2013-11-11 06:41:00,39.8,25.3,30.15,North,359,0.0,0.0,56,0.00,,---,0.00,VWS V14.01,2013-11-11 11:41:00,
2013-11-11 06:46:00,39.8,25.4,30.15,North,359,0.0,0.0,56,0.00,,---,0.00,VWS V14.01,2013-11-11 11:46:00,
2013-11-11 06:51:00,39.1,24.8,30.15,North,359,0.0,0.0,56,0.00,,---,0.00,VWS V14.01,2013-11-11 11:51:00,
2013-11-11 06:55:00,39.5,25.2,30.15,North,359,0.0,0.0,56,0.00,,---,0.00,VWS V14.01,2013-11-11 11:55:00,
2013-11-11 07:00:00,39.3,25.1,30.15,North,359,0.0,0.0,56,0.00,,---,0.00,VWS V14.01,2013-11-11 12:00:00,
2013-11-11 07:05:00,39.7,25.4,30.15,North,359,0.0,0.0,56,0.00,,---,0.00,VWS V14.01,2013-11-11 12:05:00,
2013-11-11 07:10:00,39.0,24.8,30.15,North,359,0.0,0.0,56,0.00,,---,0.00,VWS V14.01,2013-11-11 12:10:00,
2013-11-11 07:15:00,39.9,25.5,30.16,North,359,0.0,0.0,56,0.00,,---,0.00,VWS V14.01,2013-11-11 12:15:00,
2013-11-11 07:20:00,39.2,24.9,30.16,North,359,0.0,0.0,56,0.00,,---,0.00,VWS V14.01,2013-11-11 12:20:00,
2013-11-11 07:25:00,39.6,25.2,30.16,North,359,0.0,0.0,56,0.00,,---,0.00,VWS V14.01,2013-11-11 12:25:00,
2013-11-11 07:30:00,39.5,25.0,30.16,North,359,0.0,0.0,56,0.00,,---,0.00,VWS V14.01,2013-11-11 12:30:00,
2013-11-11 07:35:00,39.7,25.1,30.16,North,359,0.0,0.0,56,0.00,,---,0.00,VWS V14.01,2013-11-11 12:35:00,
2013-11-11 07:40:00,39.4,24.7,30.17,North,359,0.0,0.0,55,0.00,,---,0.00,VWS V14.01,2013-11-11 12:40:00,
2013-11-11 07:45:00,40.8,25.9,30.17,North,359,0.0,0.0,55,0.00,,---,0.00,VWS V14.01,2013-11-11 12:45:00,
2013-11-11 07:50:00,40.0,25.1,30.17,North,359,0.0,0.0,55,0.00,,---,0.00,VWS V14.01,2013-11-11 12:50:00,
2013-11-11 07:55:00,40.9,25.6,30.17,North,359,0.0,0.0,54,0.00,,---,0.00,VWS V14.01,2013-11-11 12:55:00,
2013-11-11 08:00:00,41.7,26.4,30.17,North,359,0.0,0.0,54,0.00,,---,0.00,VWS V14.01,2013-11-11 13:00:00,
2013-11-11 08:05:00,41.1,25.6,30.17,North,359,0.0,0.0,54,0.00,,---,0.00,VWS V14.01,2013-11-11 13:05:00,
2013-11-11 08:10:00,41.8,26.3,30.17,North,359,0.0,0.0,54,0.00,,---,0.00,VWS V14.01,2013-11-11 13:10:00,
2013-11-11 08:15:00,41.8,25.8,30.17,North,359,0.0,0.0,53,0.00,,---,0.00,VWS V14.01,2013-11-11 13:15:00,
2013-11-11 08:20:00,42.1,26.2,30.17,North,359,0.0,0.0,53,0.00,,---,0.00,VWS V14.01,2013-11-11 13:20:00,
2013-11-11 08:25:00,42.5,26.5,30.17,North,359,0.0,0.0,53,0.00,,---,0.00,VWS V14.01,2013-11-11 13:25:00,
2013-11-11 08:30:00,41.7,25.0,30.17,North,359,0.0,0.0,51,0.00,,---,0.00,VWS V14.01,2013-11-11 13:30:00,
2013-11-11 08:35:00,42.5,25.8,30.17,North,359,0.0,0.0,51,0.00,,---,0.00,VWS V14.01,2013-11-11 13:35:00,
2013-11-11 08:40:00,42.8,25.8,30.16,North,359,0.0,0.0,51,0.00,,---,0.00,VWS V14.01,2013-11-11 13:40:00,
2013-11-11 08:45:00,42.8,25.1,30.16,North,359,0.0,0.0,49,0.00,,---,0.00,VWS V14.01,2013-11-11 13:45:00,
2013-11-11 08:50:00,43.1,25.5,30.16,North,359,0.0,0.0,50,0.00,,---,0.00,VWS V14.01,2013-11-11 13:50:00,
2013-11-11 08:55:00,42.7,25.2,30.16,North,359,0.0,0.0,50,0.00,,---,0.00,VWS V14.01,2013-11-11 13:55:00,
2013-11-11 09:00:00,43.8,26.0,30.15,North,359,0.0,0.0,49,0.00,,---,0.00,VWS V14.01,2013-11-11 14:00:00,
2013-11-11 09:05:00,43.4,25.0,30.16,North,359,0.0,0.0,48,0.00,,---,0.00,VWS V14.01,2013-11-11 14:05:00,
2013-11-11 09:10:00,44.4,26.4,30.15,North,359,0.0,0.0,49,0.00,,---,0.00,VWS V14.01,2013-11-11 14:10:00,
2013-11-11 09:15:00,43.6,25.4,30.15,North,359,0.0,0.0,48,0.00,,---,0.00,VWS V14.01,2013-11-11 14:15:00,
2013-11-11 09:20:00,43.5,25.3,30.15,North,359,0.0,0.0,48,0.00,,---,0.00,VWS V14.01,2013-11-11 14:20:00,
2013-11-11 09:25:00,44.5,26.2,30.15,North,359,0.0,0.0,48,0.00,,---,0.00,VWS V14.01,2013-11-11 14:25:00,
2013-11-11 09:30:00,43.5,25.6,30.15,North,359,0.0,0.0,49,0.00,,---,0.00,VWS V14.01,2013-11-11 14:30:00,
2013-11-11 09:35:00,44.9,26.3,30.15,North,359,0.0,0.0,48,0.00,,---,0.00,VWS V14.01,2013-11-11 14:35:00,
2013-11-11 09:40:00,44.4,25.8,30.15,North,359,0.0,0.0,48,0.00,,---,0.00,VWS V14.01,2013-11-11 14:40:00,
2013-11-11 09:45:00,45.0,26.8,30.15,North,359,0.0,0.0,48,0.00,,---,0.00,VWS V14.01,2013-11-11 14:45:00,
2013-11-11 09:50:00,45.1,26.0,30.15,North,359,0.0,0.0,47,0.00,,---,0.00,VWS V14.01,2013-11-11 14:50:00,
2013-11-11 09:55:00,44.9,26.2,30.15,North,359,0.0,0.0,48,0.00,,---,0.00,VWS V14.01,2013-11-11 14:55:00,
2013-11-11 10:00:00,45.2,26.5,30.14,North,359,0.0,0.0,48,0.00,,---,0.00,VWS V14.01,2013-11-11 15:00:00,
2013-11-11 10:05:00,45.4,26.5,30.15,North,359,0.0,0.0,47,0.00,,---,0.00,VWS V14.01,2013-11-11 15:05:00,
2013-11-11 10:10:00,45.2,26.7,30.15,North,359,0.0,0.0,48,0.00,,---,0.00,VWS V14.01,2013-11-11 15:10:00,
2013-11-11 10:15:00,45.4,26.6,30.14,North,359,0.0,0.0,47,0.00,,---,0.00,VWS V14.01,2013-11-11 15:15:00,
2013-11-11 10:20:00,45.7,27.3,30.13,North,359,0.0,0.0,48,0.00,,---,0.00,VWS V14.01,2013-11-11 15:20:00,
2013-11-11 10:25:00,44.9,26.1,30.13,North,359,0.0,0.0,47,0.00,,---,0.00,VWS V14.01,2013-11-11 15:25:00,
2013-11-11 10:30:00,45.8,27.6,30.14,North,359,0.0,0.0,49,0.00,,---,0.00,VWS V14.01,2013-11-11 15:30:00,
2013-11-11 10:35:00,45.4,26.1,30.13,North,359,0.0,0.0,46,0.00,,---,0.00,VWS V14.01,2013-11-11 15:35:00,
2013-11-11 10:40:00,46.1,26.8,30.13,North,359,0.0,0.0,46,0.00,,---,0.00,VWS V14.01,2013-11-11 15:40:00,
2013-11-11 10:45:00,46.2,27.4,30.13,North,359,0.0,0.0,48,0.00,,---,0.00,VWS V14.01,2013-11-11 15:45:00,
2013-11-11 10:50:00,45.9,26.6,30.13,North,359,0.0,0.0,47,0.00,,---,0.00,VWS V14.01,2013-11-11 15:50:00,
2013-11-11 10:55:00,46.6,26.7,30.13,North,359,0.0,0.0,46,0.00,,---,0.00,VWS V14.01,2013-11-11 15:55:00,
2013-11-11 11:00:00,47.3,27.5,30.13,North,359,0.0,0.0,46,0.00,,---,0.00,VWS V14.01,2013-11-11 16:00:00,
2013-11-11 11:05:00,46.2,26.7,30.13,North,359,0.0,0.0,46,0.00,,---,0.00,VWS V14.01,2013-11-11 16:05:00,
2013-11-11 11:10:00,47.2,27.2,30.13,North,359,0.0,0.0,46,0.00,,---,0.00,VWS V14.01,2013-11-11 16:10:00,
2013-11-11 11:15:00,47.4,27.6,30.13,North,359,0.0,0.0,46,0.00,,---,0.00,VWS V14.01,2013-11-11 16:15:00,
2013-11-11 11:20:00,48.1,28.1,30.12,North,359,0.0,0.0,46,0.00,,---,0.00,VWS V14.01,2013-11-11 16:20:00,
2013-11-11 11:25:00,47.7,28.1,30.12,North,359,0.0,0.0,46,0.00,,---,0.00,VWS V14.01,2013-11-11 16:25:00,
2013-11-11 11:30:00,47.4,27.4,30.12,North,359,0.0,0.0,45,0.00,,---,0.00,VWS V14.01,2013-11-11 16:30:00,
2013-11-11 11:35:00,48.3,28.2,30.11,North,359,0.0,0.0,45,0.00,,---,0.00,VWS V14.01,2013-11-11 16:35:00,
2013-11-11 11:40:00,48.8,29.0,30.10,North,359,0.0,0.0,46,0.00,,---,0.00,VWS V14.01,2013-11-11 16:40:00,
2013-11-11 11:45:00,49.1,27.9,30.10,North,359,0.0,0.0,44,0.00,,---,0.00,VWS V14.01,2013-11-11 16:45:00,
2013-11-11 11:50:00,49.4,28.2,30.10,North,359,0.0,0.0,44,0.00,,---,0.00,VWS V14.01,2013-11-11 16:50:00,
2013-11-11 11:55:00,49.7,28.5,30.10,North,359,0.0,0.0,44,0.00,,---,0.00,VWS V14.01,2013-11-11 16:55:00,
2013-11-11 12:00:00,49.6,29.3,30.10,North,359,0.0,0.0,45,0.00,,---,0.00,VWS V14.01,2013-11-11 17:00:00,
2013-11-11 12:05:00,49.5,28.4,30.10,North,359,0.0,0.0,44,0.00,,---,0.00,VWS V14.01,2013-11-11 17:05:00,
2013-11-11 12:10:00,49.1,27.8,30.10,North,359,0.0,0.0,43,0.00,,---,0.00,VWS V14.01,2013-11-11 17:10:00,
2013-11-11 12:15:00,50.2,28.5,30.09,North,359,0.0,0.0,43,0.00,,---,0.00,VWS V14.01,2013-11-11 17:15:00,
2013-11-11 12:20:00,50.0,27.8,30.09,North,359,0.0,0.0,42,0.00,,---,0.00,VWS V14.01,2013-11-11 17:20:00,
2013-11-11 12:25:00,50.6,28.1,30.09,North,359,0.0,0.0,42,0.00,,---,0.00,VWS V14.01,2013-11-11 17:25:00,
2013-11-11 12:30:00,51.1,28.4,30.08,North,359,0.0,0.0,41,0.00,,---,0.00,VWS V14.01,2013-11-11 17:30:00,
2013-11-11 12:35:00,51.2,28.3,30.08,North,359,0.0,0.0,41,0.00,,---,0.00,VWS V14.01,2013-11-11 17:35:00,
2013-11-11 12:40:00,51.7,28.7,30.08,North,359,0.0,0.0,41,0.00,,---,0.00,VWS V14.01,2013-11-11 17:40:00,
2013-11-11 12:45:00,51.7,28.4,30.07,North,359,0.0,0.0,40,0.00,,---,0.00,VWS V14.01,2013-11-11 17:45:00,
2013-11-11 12:50:00,50.9,27.1,30.07,North,359,0.0,0.0,39,0.00,,---,0.00,VWS V14.01,2013-11-11 17:50:00,
2013-11-11 12:55:00,51.1,27.3,30.07,North,359,0.0,0.0,40,0.00,,---,0.00,VWS V14.01,2013-11-11 17:55:00,
2013-11-11 13:00:00,51.2,27.4,30.07,North,359,0.0,0.0,39,0.00,,---,0.00,VWS V14.01,2013-11-11 18:00:00,
2013-11-11 13:05:00,51.7,28.0,30.06,North,359,0.0,0.0,40,0.00,,---,0.00,VWS V14.01,2013-11-11 18:05:00,
2013-11-11 13:10:00,51.1,27.6,30.06,North,359,0.0,0.0,40,0.00,,---,0.00,VWS V14.01,2013-11-11 18:10:00,
2013-11-11 13:15:00,51.6,26.8,30.06,North,359,0.0,0.0,38,0.00,,---,0.00,VWS V14.01,2013-11-11 18:15:00,
2013-11-11 13:20:00,51.9,27.4,30.06,North,359,0.0,0.0,38,0.00,,---,0.00,VWS V14.01,2013-11-11 18:20:00,
2013-11-11 13:25:00,51.7,27.2,30.05,North,359,0.0,0.0,38,0.00,,---,0.00,VWS V14.01,2013-11-11 18:25:00,
2013-11-11 13:30:00,51.9,27.4,30.06,North,359,0.0,0.0,38,0.00,,---,0.00,VWS V14.01,2013-11-11 18:30:00,
2013-11-11 13:35:00,50.9,26.4,30.05,North,359,0.0,0.0,38,0.00,,---,0.00,VWS V14.01,2013-11-11 18:35:00,
2013-11-11 13:40:00,51.7,26.8,30.05,North,359,0.0,0.0,38,0.00,,---,0.00,VWS V14.01,2013-11-11 18:40:00,
2013-11-11 13:45:00,51.9,26.5,30.05,North,359,0.0,0.0,37,0.00,,---,0.00,VWS V14.01,2013-11-11 18:45:00,
2013-11-11 13:50:00,52.8,27.3,30.05,North,359,0.0,0.0,37,0.00,,---,0.00,VWS V14.01,2013-11-11 18:50:00,
2013-11-11 13:55:00,51.4,26.5,30.05,North,359,0.0,0.0,38,0.00,,---,0.00,VWS V14.01,2013-11-11 18:55:00,
2013-11-11 14:00:00,51.9,27.5,30.05,North,359,0.0,0.0,39,0.00,,---,0.00,VWS V14.01,2013-11-11 19:00:00,
2013-11-11 14:05:00,52.1,27.7,30.04,North,359,0.0,0.0,39,0.00,,---,0.00,VWS V14.01,2013-11-11 19:05:00,
2013-11-11 14:10:00,52.6,27.0,30.04,North,359,0.0,0.0,37,0.00,,---,0.00,VWS V14.01,2013-11-11 19:10:00,
2013-11-11 14:15:00,52.7,26.9,30.04,North,359,0.0,0.0,36,0.00,,---,0.00,VWS V14.01,2013-11-11 19:15:00,
2013-11-11 14:20:00,52.1,26.3,30.03,North,359,0.0,0.0,36,0.00,,---,0.00,VWS V14.01,2013-11-11 19:20:00,
2013-11-11 14:25:00,53.0,27.2,30.02,North,359,0.0,0.0,37,0.00,,---,0.00,VWS V14.01,2013-11-11 19:25:00,
2013-11-11 14:30:00,51.5,25.9,30.03,North,359,0.0,0.0,37,0.00,,---,0.00,VWS V14.01,2013-11-11 19:30:00,
2013-11-11 14:35:00,52.3,26.4,30.03,North,359,0.0,0.0,36,0.00,,---,0.00,VWS V14.01,2013-11-11 19:35:00,
2013-11-11 14:40:00,52.6,26.8,30.03,North,359,0.0,0.0,36,0.00,,---,0.00,VWS V14.01,2013-11-11 19:40:00,
2013-11-11 14:45:00,52.3,26.2,30.03,North,359,0.0,0.0,36,0.00,,---,0.00,VWS V14.01,2013-11-11 19:45:00,
2013-11-11 14:50:00,51.9,26.7,30.03,North,359,0.0,0.0,37,0.00,,---,0.00,VWS V14.01,2013-11-11 19:50:00,
2013-11-11 14:55:00,52.7,27.3,30.03,North,359,0.0,0.0,37,0.00,,---,0.00,VWS V14.01,2013-11-11 19:55:00,
2013-11-11 15:00:00,52.1,26.8,30.03,North,359,0.0,0.0,37,0.00,,---,0.00,VWS V14.01,2013-11-11 20:00:00,
2013-11-11 15:05:00,52.8,27.8,30.02,North,359,0.0,0.0,38,0.00,,---,0.00,VWS V14.01,2013-11-11 20:05:00,
2013-11-11 15:10:00,51.7,26.3,30.02,North,359,0.0,0.0,37,0.00,,---,0.00,VWS V14.01,2013-11-11 20:10:00,
2013-11-11 15:15:00,52.3,27.2,30.03,North,359,0.0,0.0,38,0.00,,---,0.00,VWS V14.01,2013-11-11 20:15:00,
2013-11-11 15:20:00,52.1,27.2,30.03,North,359,0.0,0.0,38,0.00,,---,0.00,VWS V14.01,2013-11-11 20:20:00,
2013-11-11 15:25:00,52.6,27.6,30.02,North,359,0.0,0.0,38,0.00,,---,0.00,VWS V14.01,2013-11-11 20:25:00,
2013-11-11 15:30:00,52.0,26.8,30.03,North,359,0.0,0.0,37,0.00,,---,0.00,VWS V14.01,2013-11-11 20:30:00,
2013-11-11 15:35:00,52.6,27.7,30.02,North,359,0.0,0.0,38,0.00,,---,0.00,VWS V14.01,2013-11-11 20:35:00,
2013-11-11 15:40:00,52.7,27.3,30.02,North,359,0.0,0.0,37,0.00,,---,0.00,VWS V14.01,2013-11-11 20:40:00,
2013-11-11 15:45:00,52.9,27.6,30.02,North,359,0.0,0.0,37,0.00,,---,0.00,VWS V14.01,2013-11-11 20:45:00,
2013-11-11 15:50:00,51.9,27.1,30.02,North,359,0.0,0.0,38,0.00,,---,0.00,VWS V14.01,2013-11-11 20:50:00,
2013-11-11 15:55:00,52.9,28.1,30.02,North,359,0.0,0.0,38,0.00,,---,0.00,VWS V14.01,2013-11-11 20:55:00,
2013-11-11 16:00:00,52.4,27.8,30.02,North,359,0.0,0.0,38,0.00,,---,0.00,VWS V14.01,2013-11-11 21:00:00,
2013-11-11 16:05:00,52.4,28.2,30.02,North,359,0.0,0.0,39,0.00,,---,0.00,VWS V14.01,2013-11-11 21:05:00,
2013-11-11 16:10:00,52.1,28.4,30.02,North,359,0.0,0.0,40,0.00,,---,0.00,VWS V14.01,2013-11-11 21:10:00,
2013-11-11 16:15:00,52.3,28.7,30.02,North,359,0.0,0.0,40,0.00,,---,0.00,VWS V14.01,2013-11-11 21:15:00,
2013-11-11 16:20:00,52.0,28.7,30.02,North,359,0.0,0.0,40,0.00,,---,0.00,VWS V14.01,2013-11-11 21:20:00,
2013-11-11 16:25:00,51.4,28.5,30.02,North,359,0.0,0.0,41,0.00,,---,0.00,VWS V14.01,2013-11-11 21:25:00,
2013-11-11 16:30:00,51.8,29.0,30.02,North,359,0.0,0.0,41,0.00,,---,0.00,VWS V14.01,2013-11-11 21:30:00,
2013-11-11 16:34:00,51.2,28.7,30.02,North,359,0.0,0.0,42,0.00,,---,0.00,VWS V14.01,2013-11-11 21:34:00,
2013-11-11 16:39:00,51.8,29.5,30.02,North,359,0.0,0.0,42,0.00,,---,0.00,VWS V14.01,2013-11-11 21:39:00,
2013-11-11 16:44:00,51.3,29.3,30.01,North,359,0.0,0.0,42,0.00,,---,0.00,VWS V14.01,2013-11-11 21:44:00,
2013-11-11 16:49:00,51.7,29.7,30.01,North,359,0.0,0.0,43,0.00,,---,0.00,VWS V14.01,2013-11-11 21:49:00,
2013-11-11 16:54:00,51.6,29.9,30.01,North,359,0.0,0.0,43,0.00,,---,0.00,VWS V14.01,2013-11-11 21:54:00,
2013-11-11 16:59:00,50.8,29.2,30.01,North,359,0.0,0.0,43,0.00,,---,0.00,VWS V14.01,2013-11-11 21:59:00,
2013-11-11 17:04:00,51.0,29.6,30.00,North,359,0.0,0.0,44,0.00,,---,0.00,VWS V14.01,2013-11-11 22:04:00,
2013-11-11 17:09:00,51.3,30.1,30.00,North,359,0.0,0.0,44,0.00,,---,0.00,VWS V14.01,2013-11-11 22:09:00,
2013-11-11 17:14:00,51.0,30.0,30.01,North,359,0.0,0.0,44,0.00,,---,0.00,VWS V14.01,2013-11-11 22:14:00,
2013-11-11 17:19:00,50.7,30.0,30.00,North,359,0.0,0.0,45,0.00,,---,0.00,VWS V14.01,2013-11-11 22:19:00,
2013-11-11 17:24:00,51.8,31.1,30.00,North,359,0.0,0.0,45,0.00,,---,0.00,VWS V14.01,2013-11-11 22:24:00,
2013-11-11 17:29:00,50.2,29.8,30.01,North,359,0.0,0.0,45,0.00,,---,0.00,VWS V14.01,2013-11-11 22:29:00,
2013-11-11 17:34:00,51.0,30.6,30.01,North,359,0.0,0.0,45,0.00,,---,0.00,VWS V14.01,2013-11-11 22:34:00,
2013-11-11 17:39:00,50.2,30.1,30.01,North,359,0.0,0.0,46,0.00,,---,0.00,VWS V14.01,2013-11-11 22:39:00,
2013-11-11 17:44:00,50.8,30.7,30.00,North,359,0.0,0.0,46,0.00,,---,0.00,VWS V14.01,2013-11-11 22:44:00,
2013-11-11 17:49:00,50.7,30.6,30.00,North,359,0.0,0.0,46,0.00,,---,0.00,VWS V14.01,2013-11-11 22:49:00,
2013-11-11 17:54:00,50.9,30.8,30.00,North,359,0.0,0.0,46,0.00,,---,0.00,VWS V14.01,2013-11-11 22:54:00,
2013-11-11 17:59:00,50.3,30.4,30.00,North,359,0.0,0.0,46,0.00,,---,0.00,VWS V14.01,2013-11-11 22:59:00,
2013-11-11 18:04:00,50.8,31.0,30.00,North,359,0.0,0.0,46,0.00,,---,0.00,VWS V14.01,2013-11-11 23:04:00,
2013-11-11 18:09:00,50.5,30.7,30.01,North,359,0.0,0.0,46,0.00,,---,0.00,VWS V14.01,2013-11-11 23:09:00,
2013-11-11 18:14:00,50.8,31.1,30.00,North,359,0.0,0.0,47,0.00,,---,0.00,VWS V14.01,2013-11-11 23:14:00,
2013-11-11 18:19:00,50.3,30.9,30.00,North,359,0.0,0.0,47,0.00,,---,0.00,VWS V14.01,2013-11-11 23:19:00,
2013-11-11 18:24:00,50.9,31.6,30.00,North,359,0.0,0.0,47,0.00,,---,0.00,VWS V14.01,2013-11-11 23:24:00,
2013-11-11 18:29:00,50.6,31.4,30.00,North,359,0.0,0.0,48,0.00,,---,0.00,VWS V14.01,2013-11-11 23:29:00,
2013-11-11 18:34:00,50.7,31.7,30.00,North,359,0.0,0.0,48,0.00,,---,0.00,VWS V14.01,2013-11-11 23:34:00,
2013-11-11 18:39:00,50.0,31.0,30.00,North,359,0.0,0.0,48,0.00,,---,0.00,VWS V14.01,2013-11-11 23:39:00,
2013-11-11 18:44:00,50.3,31.6,30.00,North,359,0.0,0.0,48,0.00,,---,0.00,VWS V14.01,2013-11-11 23:44:00,
2013-11-11 18:49:00,50.7,31.9,29.99,North,359,0.0,0.0,48,0.00,,---,0.00,VWS V14.01,2013-11-11 23:49:00,
2013-11-11 18:54:00,50.1,31.4,29.99,North,359,0.0,0.0,48,0.00,,---,0.00,VWS V14.01,2013-11-11 23:54:00,
2013-11-11 18:59:00,50.6,31.9,29.99,North,359,0.0,0.0,48,0.00,,---,0.00,VWS V14.01,2013-11-11 23:59:00,
2013-11-11 19:04:00,50.1,31.3,29.98,North,359,0.0,0.0,48,0.00,,---,0.00,VWS V14.01,2013-11-12 00:04:00,
2013-11-11 19:09:00,50.6,31.7,29.98,North,359,0.0,0.0,48,0.00,,---,0.00,VWS V14.01,2013-11-12 00:09:00,
2013-11-11 19:14:00,50.2,31.3,29.97,North,359,0.0,0.0,48,0.00,,---,0.00,VWS V14.01,2013-11-12 00:14:00,
2013-11-11 19:19:00,50.6,31.6,29.97,North,359,0.0,0.0,48,0.00,,---,0.00,VWS V14.01,2013-11-12 00:19:00,
2013-11-11 19:24:00,50.0,31.1,29.97,North,359,0.0,0.0,48,0.00,,---,0.00,VWS V14.01,2013-11-12 00:24:00,
2013-11-11 19:29:00,50.3,31.6,29.97,North,359,0.0,0.0,48,0.00,,---,0.00,VWS V14.01,2013-11-12 00:29:00,
2013-11-11 19:34:00,50.2,31.7,29.97,North,359,0.0,0.0,49,0.00,,---,0.00,VWS V14.01,2013-11-12 00:34:00,
2013-11-11 19:39:00,50.2,31.8,29.97,North,359,0.0,0.0,49,0.00,,---,0.00,VWS V14.01,2013-11-12 00:39:00,
2013-11-11 19:44:00,49.9,31.5,29.97,North,359,0.0,0.0,49,0.00,,---,0.00,VWS V14.01,2013-11-12 00:44:00,
2013-11-11 19:49:00,49.8,31.5,29.97,North,359,0.0,0.0,49,0.00,,---,0.00,VWS V14.01,2013-11-12 00:49:00,
2013-11-11 19:54:00,50.6,32.1,29.97,North,359,0.0,0.0,49,0.00,,---,0.00,VWS V14.01,2013-11-12 00:54:00,
2013-11-11 19:59:00,49.3,31.0,29.97,North,359,0.0,0.0,49,0.00,,---,0.00,VWS V14.01,2013-11-12 00:59:00,
2013-11-11 20:04:00,49.8,31.7,29.97,North,359,0.0,0.0,50,0.00,,---,0.00,VWS V14.01,2013-11-12 01:04:00,
2013-11-11 20:09:00,49.7,31.9,29.97,North,359,0.0,0.0,50,0.00,,---,0.00,VWS V14.01,2013-11-12 01:09:00,
2013-11-11 20:14:00,50.0,32.3,29.96,North,359,0.0,0.0,50,0.00,,---,0.00,VWS V14.01,2013-11-12 01:14:00,
2013-11-11 20:19:00,49.8,32.4,29.97,North,359,0.0,0.0,51,0.00,,---,0.00,VWS V14.01,2013-11-12 01:19:00,
2013-11-11 20:24:00,49.0,31.9,29.97,North,359,0.0,0.0,51,0.00,,---,0.00,VWS V14.01,2013-11-12 01:24:00,
2013-11-11 20:29:00,49.3,32.2,29.97,North,359,0.0,0.0,52,0.00,,---,0.00,VWS V14.01,2013-11-12 01:29:00,
2013-11-11 20:34:00,50.0,33.1,29.96,North,359,0.0,0.0,52,0.00,,---,0.00,VWS V14.01,2013-11-12 01:34:00,
2013-11-11 20:39:00,49.8,33.1,29.97,North,359,0.0,0.0,52,0.00,,---,0.00,VWS V14.01,2013-11-12 01:39:00,
2013-11-11 20:44:00,49.9,33.3,29.96,North,359,0.0,0.0,53,0.00,,---,0.00,VWS V14.01,2013-11-12 01:44:00,
2013-11-11 20:49:00,50.0,33.5,29.97,North,359,0.0,0.0,53,0.00,,---,0.00,VWS V14.01,2013-11-12 01:49:00,
2013-11-11 20:54:00,49.7,33.3,29.96,North,359,0.0,0.0,53,0.00,,---,0.00,VWS V14.01,2013-11-12 01:54:00,
2013-11-11 20:59:00,49.3,33.0,29.96,North,359,0.0,0.0,53,0.00,,---,0.00,VWS V14.01,2013-11-12 01:59:00,
2013-11-11 21:04:00,49.9,33.5,29.96,North,359,0.0,0.0,53,0.00,,---,0.00,VWS V14.01,2013-11-12 02:04:00,
2013-11-11 21:09:00,49.5,33.0,29.96,North,359,0.0,0.0,53,0.00,,---,0.00,VWS V14.01,2013-11-12 02:09:00,
2013-11-11 21:14:00,49.3,32.8,29.96,North,359,0.0,0.0,53,0.00,,---,0.00,VWS V14.01,2013-11-12 02:14:00,
2013-11-11 21:19:00,49.7,33.0,29.96,North,359,0.0,0.0,52,0.00,,---,0.00,VWS V14.01,2013-11-12 02:19:00,
2013-11-11 21:24:00,50.0,33.5,29.95,North,359,0.0,0.0,53,0.00,,---,0.00,VWS V14.01,2013-11-12 02:24:00,
2013-11-11 21:29:00,49.2,32.6,29.96,North,359,0.0,0.0,52,0.00,,---,0.00,VWS V14.01,2013-11-12 02:29:00,
2013-11-11 21:34:00,49.0,32.5,29.96,North,359,0.0,0.0,53,0.00,,---,0.00,VWS V14.01,2013-11-12 02:34:00,
2013-11-11 21:39:00,49.2,32.7,29.96,North,359,0.0,0.0,53,0.00,,---,0.00,VWS V14.01,2013-11-12 02:39:00,
2013-11-11 21:44:00,49.2,32.7,29.95,North,359,0.0,0.0,53,0.00,,---,0.00,VWS V14.01,2013-11-12 02:44:00,
2013-11-11 21:49:00,49.9,33.4,29.95,North,359,0.0,0.0,53,0.00,,---,0.00,VWS V14.01,2013-11-12 02:49:00,
2013-11-11 21:54:00,49.2,32.7,29.95,North,359,0.0,0.0,53,0.00,,---,0.00,VWS V14.01,2013-11-12 02:54:00,
2013-11-11 21:59:00,49.8,33.3,29.95,North,359,0.0,0.0,53,0.00,,---,0.00,VWS V14.01,2013-11-12 02:59:00,
2013-11-11 22:04:00,49.9,33.4,29.95,North,359,0.0,0.0,53,0.00,,---,0.00,VWS V14.01,2013-11-12 03:04:00,
2013-11-11 22:09:00,49.4,33.0,29.95,North,359,0.0,0.0,53,0.00,,---,0.00,VWS V14.01,2013-11-12 03:09:00,
2013-11-11 22:14:00,49.4,33.0,29.94,North,359,0.0,0.0,53,0.00,,---,0.00,VWS V14.01,2013-11-12 03:14:00,
2013-11-11 22:19:00,49.0,32.7,29.94,North,359,0.0,0.0,53,0.00,,---,0.00,VWS V14.01,2013-11-12 03:19:00,
2013-11-11 22:24:00,48.8,32.5,29.94,North,359,0.0,0.0,53,0.00,,---,0.00,VWS V14.01,2013-11-12 03:24:00,
2013-11-11 22:29:00,49.4,33.2,29.94,North,359,0.0,0.0,54,0.00,,---,0.00,VWS V14.01,2013-11-12 03:29:00,
2013-11-11 22:34:00,49.5,33.5,29.94,North,359,0.0,0.0,54,0.00,,---,0.00,VWS V14.01,2013-11-12 03:34:00,
2013-11-11 22:39:00,48.9,33.0,29.94,North,359,0.0,0.0,54,0.00,,---,0.00,VWS V14.01,2013-11-12 03:39:00,
2013-11-11 22:44:00,49.6,34.0,29.94,North,359,0.0,0.0,55,0.00,,---,0.00,VWS V14.01,2013-11-12 03:44:00,
2013-11-11 22:49:00,49.6,34.2,29.94,North,359,0.0,0.0,55,0.00,,---,0.00,VWS V14.01,2013-11-12 03:49:00,
2013-11-11 22:54:00,49.3,34.2,29.93,North,359,0.0,0.0,56,0.00,,---,0.00,VWS V14.01,2013-11-12 03:54:00,
2013-11-11 22:59:00,49.1,34.1,29.94,North,359,0.0,0.0,56,0.00,,---,0.00,VWS V14.01,2013-11-12 03:59:00,
2013-11-11 23:04:00,48.8,34.0,29.94,North,359,0.0,0.0,56,0.00,,---,0.00,VWS V14.01,2013-11-12 04:04:00,
2013-11-11 23:09:00,48.8,34.0,29.93,North,359,0.0,0.0,56,0.00,,---,0.00,VWS V14.01,2013-11-12 04:09:00,
2013-11-11 23:14:00,48.4,33.6,29.93,North,359,0.0,0.0,56,0.00,,---,0.00,VWS V14.01,2013-11-12 04:14:00,
2013-11-11 23:19:00,48.4,33.7,29.93,North,359,0.0,0.0,56,0.00,,---,0.00,VWS V14.01,2013-11-12 04:19:00,
2013-11-11 23:24:00,49.2,34.4,29.93,North,359,0.0,0.0,56,0.00,,---,0.00,VWS V14.01,2013-11-12 04:24:00,
2013-11-11 23:28:00,48.7,34.0,29.93,North,359,0.0,0.0,57,0.00,,---,0.00,VWS V14.01,2013-11-12 04:28:00,
2013-11-11 23:33:00,48.2,33.5,29.93,North,359,0.0,0.0,56,0.00,,---,0.00,VWS V14.01,2013-11-12 04:33:00,
2013-11-11 23:38:00,49.7,34.9,29.93,North,359,0.0,0.0,56,0.00,,---,0.00,VWS V14.01,2013-11-12 04:38:00,
2013-11-11 23:43:00,48.9,34.1,29.93,North,359,0.0,0.0,56,0.00,,---,0.00,VWS V14.01,2013-11-12 04:43:00,
2013-11-11 23:48:00,48.9,34.1,29.93,North,359,0.0,0.0,56,0.00,,---,0.00,VWS V14.01,2013-11-12 04:48:00,
2013-11-11 23:53:00,49.3,34.4,29.93,North,359,0.0,0.0,56,0.00,,---,0.00,VWS V14.01,2013-11-12 04:53:00,
2013-11-11 23:58:00,49.1,34.3,29.92,North,359,0.0,0.0,56,0.00,,---,0.00,VWS V14.01,2013-11-12 04:58:00,